• In Italy
  • List of Countries
  • For 7 days
  • Water Temperature
  • Satellite Maps
  • Weather Map
  • Weather Widgets
  • user-avatar
    Login

    Hourly Weather Megri

    Today, 19 February, Monday

    Time Temperature Precipitation Wind Pressure Humidity
    00:00 -3°C° 0.8 mm 2 mps 615 mmHg 89%
    01:00 -3°C° 0.5 mm 2 mps 615 mmHg 89%
    02:00 -3°C° 0.5 mm 2 mps 615 mmHg 89%
    03:00 -4°C° 0 mm 2 mps 615 mmHg 86%
    04:00 -4°C° 0.4 mm 2 mps 615 mmHg 86%
    05:00 -2°C° 0.4 mm 1 mps 615 mmHg 86%
    06:00 -2°C° 0.4 mm 1 mps 616 mmHg 86%
    07:00 -1°C° 0.2 mm 1 mps 616 mmHg 84%
    08:00 0°C° 0.2 mm 1 mps 617 mmHg 83%
    09:00 0°C° 0.2 mm 1 mps 617 mmHg 82%
    10:00 +1°C° 0.1 mm 1 mps 617 mmHg 80%
    11:00 +1°C° 0.1 mm 1 mps 617 mmHg 79%
    12:00 +2°C° 0.1 mm 1 mps 617 mmHg 77%
    13:00 +1°C° 0 mm 2 mps 618 mmHg 75%
    14:00 +2°C° 0 mm 2 mps 618 mmHg 73%
    15:00 +2°C° 0 mm 2 mps 618 mmHg 71%
    16:00 +2°C° 0 mm 2 mps 618 mmHg 72%
    17:00 +1°C° 0 mm 2 mps 618 mmHg 73%
    18:00 +1°C° 0 mm 1 mps 618 mmHg 74%
    19:00 +1°C° 0 mm 1 mps 618 mmHg 74%
    20:00 0°C° 0 mm 1 mps 618 mmHg 74%
    21:00 0°C° 0 mm 1 mps 618 mmHg 75%
    22:00 0°C° 0 mm 1 mps 618 mmHg 75%
    23:00 -1°C° 0 mm 1 mps 618 mmHg 75%

    Tomorrow, 20 February, Tuesday

    Time Temperature Precipitation Wind Pressure Humidity
    00:00 -1°C° 0 mm 1 mps 618 mmHg 75%
    01:00 -1°C° 0 mm 1 mps 618 mmHg 76%
    02:00 -1°C° 0 mm 1 mps 618 mmHg 77%
    03:00 -1°C° 0 mm 1 mps 618 mmHg 78%
    04:00 -1°C° 0 mm 1 mps 619 mmHg 79%
    05:00 -1°C° 0 mm 1 mps 619 mmHg 79%
    06:00 -2°C° 0 mm 1 mps 619 mmHg 80%
    07:00 0°C° 0 mm 1 mps 619 mmHg 78%
    08:00 +1°C° 0 mm 1 mps 620 mmHg 76%
    09:00 +3°C° 0 mm 1 mps 620 mmHg 73%
    10:00 +3°C° 0 mm 2 mps 620 mmHg 72%
    11:00 +3°C° 0 mm 2 mps 620 mmHg 71%
    12:00 +4°C° 0 mm 2 mps 620 mmHg 70%
    13:00 +5°C° 0 mm 2 mps 620 mmHg 68%
    14:00 +5°C° 0 mm 2 mps 620 mmHg 65%
    15:00 +5°C° 0 mm 2 mps 619 mmHg 63%
    16:00 +5°C° 0 mm 1 mps 619 mmHg 64%
    17:00 +4°C° 0 mm 1 mps 619 mmHg 64%
    18:00 +3°C° 0 mm 1 mps 619 mmHg 65%
    19:00 +3°C° 0 mm 1 mps 619 mmHg 65%
    20:00 +2°C° 0 mm 1 mps 619 mmHg 66%
    21:00 +2°C° 0 mm 1 mps 619 mmHg 66%
    22:00 +2°C° 0 mm 1 mps 619 mmHg 66%
    23:00 +1°C° 0 mm 1 mps 619 mmHg 67%

    Day after tomorrow, 21 February, Wednesday

    Time Temperature Precipitation Wind Pressure Humidity
    00:00 +1°C° 0 mm 1 mps 618 mmHg 67%
    01:00 +1°C° 0 mm 1 mps 618 mmHg 68%
    02:00 +1°C° 0 mm 1 mps 618 mmHg 68%
    03:00 0°C° 0 mm 1 mps 618 mmHg 69%
    04:00 0°C° 0 mm 1 mps 618 mmHg 70%
    05:00 0°C° 0 mm 1 mps 618 mmHg 71%
    06:00 0°C° 0 mm 1 mps 618 mmHg 71%
    07:00 +1°C° 0 mm 1 mps 619 mmHg 70%
    08:00 +2°C° 0 mm 1 mps 619 mmHg 68%
    09:00 +4°C° 0 mm 1 mps 620 mmHg 66%
    10:00 +4°C° 0 mm 1 mps 620 mmHg 67%
    11:00 +5°C° 0 mm 1 mps 620 mmHg 69%
    12:00 +6°C° 0 mm 1 mps 620 mmHg 70%
    13:00 +6°C° 0 mm 1 mps 620 mmHg 68%
    14:00 +6°C° 0 mm 1 mps 619 mmHg 66%
    15:00 +6°C° 0 mm 1 mps 619 mmHg 64%
    16:00 +6°C° 0 mm 1 mps 619 mmHg 64%
    17:00 +5°C° 0 mm 1 mps 619 mmHg 65%
    18:00 +4°C° 0 mm 1 mps 619 mmHg 65%
    19:00 +4°C° 0 mm 1 mps 619 mmHg 66%
    20:00 +3°C° 0 mm 1 mps 619 mmHg 67%
    21:00 +3°C° 0 mm 1 mps 619 mmHg 68%
    22:00 +3°C° 0 mm 1 mps 619 mmHg 69%
    23:00 +1°C° 0 mm 0 mps 619 mmHg 69%

    22 February, Thursday

    Time Temperature Precipitation Wind Pressure Humidity
    00:00 +1°C° 0 mm 0 mps 619 mmHg 70%
    01:00 +1°C° 0 mm 0 mps 618 mmHg 70%
    02:00 +1°C° 0 mm 0 mps 618 mmHg 70%
    03:00 0°C° 0 mm 0 mps 618 mmHg 70%
    04:00 0°C° 0 mm 0 mps 618 mmHg 69%
    05:00 0°C° 0 mm 0 mps 618 mmHg 69%
    06:00 0°C° 0 mm 0 mps 618 mmHg 69%
    07:00 +2°C° 0 mm 1 mps 619 mmHg 67%
    08:00 +3°C° 0 mm 1 mps 619 mmHg 64%
    09:00 +4°C° 0 mm 1 mps 620 mmHg 62%
    10:00 +5°C° 0 mm 1 mps 620 mmHg 62%
    11:00 +5°C° 0 mm 1 mps 619 mmHg 63%
    12:00 +5°C° 0 mm 2 mps 619 mmHg 64%
    13:00 +6°C° 0 mm 1 mps 619 mmHg 62%
    14:00 +7°C° 0 mm 1 mps 618 mmHg 60%
    15:00 +7°C° 0 mm 1 mps 618 mmHg 58%
    16:00 +6°C° 0 mm 1 mps 618 mmHg 59%
    17:00 +5°C° 0 mm 1 mps 618 mmHg 59%
    18:00 +3°C° 0 mm 0 mps 618 mmHg 59%
    19:00 +3°C° 0 mm 0 mps 618 mmHg 61%
    20:00 +3°C° 0 mm 1 mps 618 mmHg 63%
    21:00 +3°C° 0 mm 1 mps 618 mmHg 64%
    22:00 +3°C° 0 mm 1 mps 618 mmHg 65%
    23:00 +2°C° 0 mm 1 mps 617 mmHg 67%

    23 February, Friday

    Time Temperature Precipitation Wind Pressure Humidity
    00:00 +2°C° 0 mm 1 mps 617 mmHg 68%
    01:00 +2°C° 0 mm 1 mps 617 mmHg 70%
    02:00 +2°C° 0 mm 1 mps 617 mmHg 71%
    03:00 +1°C° 0 mm 2 mps 617 mmHg 73%
    04:00 +1°C° 0.1 mm 2 mps 617 mmHg 76%
    05:00 +1°C° 0.1 mm 2 mps 617 mmHg 78%
    06:00 +1°C° 0.1 mm 2 mps 617 mmHg 81%
    07:00 +1°C° 0.4 mm 2 mps 617 mmHg 80%
    08:00 +2°C° 0.4 mm 2 mps 618 mmHg 80%
    09:00 +2°C° 0.4 mm 2 mps 618 mmHg 80%
    10:00 +2°C° 0.6 mm 2 mps 618 mmHg 79%
    11:00 +3°C° 0.6 mm 2 mps 618 mmHg 78%
    12:00 +3°C° 0.6 mm 2 mps 617 mmHg 77%
    13:00 +3°C° 0.2 mm 2 mps 617 mmHg 76%
    14:00 +3°C° 0.2 mm 2 mps 617 mmHg 75%
    15:00 +4°C° 0.2 mm 2 mps 617 mmHg 73%
    16:00 +3°C° 0.1 mm 2 mps 617 mmHg 74%
    17:00 +3°C° 0.1 mm 2 mps 617 mmHg 75%
    18:00 +3°C° 0.1 mm 1 mps 617 mmHg 76%
    19:00 +3°C° 0 mm 1 mps 617 mmHg 78%
    20:00 +2°C° 0 mm 1 mps 617 mmHg 80%
    21:00 +2°C° 0 mm 1 mps 617 mmHg 81%
    22:00 +1°C° 0 mm 1 mps 617 mmHg 82%
    23:00 +1°C° 0 mm 1 mps 616 mmHg 82%

    24 February, Saturday

    Time Temperature Precipitation Wind Pressure Humidity
    00:00 +1°C° 0 mm 1 mps 616 mmHg 82%
    01:00 0°C° 0 mm 1 mps 616 mmHg 82%
    02:00 0°C° 0 mm 1 mps 616 mmHg 82%
    03:00 0°C° 0 mm 1 mps 616 mmHg 81%
    04:00 0°C° 0 mm 1 mps 616 mmHg 81%
    05:00 0°C° 0 mm 1 mps 616 mmHg 81%
    06:00 -1°C° 0 mm 1 mps 616 mmHg 81%
    07:00 0°C° 0 mm 1 mps 617 mmHg 77%
    08:00 +1°C° 0 mm 1 mps 617 mmHg 73%
    09:00 +2°C° 0 mm 1 mps 618 mmHg 70%
    10:00 +3°C° 0 mm 1 mps 618 mmHg 68%
    11:00 +4°C° 0 mm 1 mps 618 mmHg 67%
    12:00 +5°C° 0 mm 1 mps 618 mmHg 65%
    13:00 +5°C° 0 mm 1 mps 618 mmHg 64%
    14:00 +5°C° 0 mm 1 mps 617 mmHg 63%
    15:00 +6°C° 0 mm 1 mps 617 mmHg 63%
    16:00 +5°C° 0 mm 1 mps 617 mmHg 63%
    17:00 +4°C° 0 mm 1 mps 617 mmHg 63%
    18:00 +3°C° 0 mm 1 mps 617 mmHg 64%
    19:00 +3°C° 0 mm 1 mps 617 mmHg 67%
    20:00 +2°C° 0 mm 1 mps 617 mmHg 70%
    21:00 +1°C° 0 mm 1 mps 617 mmHg 72%
    22:00 +1°C° 0 mm 1 mps 617 mmHg 74%
    23:00 0°C° 0 mm 0 mps 617 mmHg 75%
    Show more